Terug naar catalogus

COSMOS 1375 DEB

ActiefLEO
NORAD 16387·DEBRIS·🇷🇺 Russia

Gelanceerd Jun 6, 1982 vanaf Plesetsk Cosmodrome

Loading…

Volgende Passages (komende 24 uur)

TLE

VersSource: Space-Track

Epoch: Sep 14, 2026, 10:06 UTC

1 16387U 82055AB  26257.42142584 -.00000024  00000-0  51204-4 0  9990
2 16387  65.8365 298.9141 0049981   5.2800   6.8802 13.84960260 67365

Volg COSMOS 1375 DEB in realtime met AllMySat

Download on the App Store